Погода в Дубровах

Россия / Псковская область     56°58′41″N   29°12′11″E
темп.,
°C
ветер,
м/с
пор.,
м/с
влажн.,
%
обл.,
%
осадки,
мм/ч
давл.,
гПа
погр.,
м
8 марта, пн
пн800:00−5сз3795100 1.1 999465
03:00−8сз3109083 1.4 1001421
06:00−8сз399466 0.1 1003613
09:00−9ссз488783 0.1 1006666
12:00−8ссз4680100 0.1 1009802
15:00−6ссз4776100 0.1 1012948
18:00−6ссз377699 0.0 1014624
21:00−10сз239073 0.0 101683
9 марта, вт
вт900:00−12ссз229417 0.0 101730
03:00−13сз12968 0.0 101925
06:00−14зсз12952 0.0 101920
09:00−12зюз118829 0.0 102083
12:00−7зюз237697 0.0 1020519
15:00−6ююз249099 0.3 1019441
18:00−5ю3795100 1.6 1017427
21:00−3зюз41280100 3.4 1018728
10 марта, ср
ср1000:00−5з1891100 0.3 1018396
03:00−8всв4695100 3.3 1019233
06:00−10в4993100 1.8 1019427
09:00−10в51092100 2.4 1022513
12:00−8в61186100 0.2 1023668
15:00−7в61078100 0.3 1024890
18:00−8в51170100 0.0 1025820
21:00−10вюв51276100 0.0 1026606
11 марта, чт
чт1100:00−12вюв5127498 0.0 1027487
03:00−14вюв4117897 0.0 1026408
06:00−14вюв4118590 0.0 1025373
09:00−13юв498989 0.0 1025398
12:00−8юв488597 0.1 1023491
15:00−4ююв498496 0.1 1021585
18:00−4ююв5128595 0.0 1019674
21:00−5ююв6158693 0.0 1017662
12 марта, пт
пт1200:00−4ююв61584100 0.0 1014918
03:00−4ююв71781100 0.0 10101115
06:00−3ююв81888100 0.4 10061138
09:00−3ю81787100 1.9 10031239
12:00−1ю81689100 0.4 1002857
15:000ю61398100 1.5 1001629
18:00+2ююз41096100 0.6 1000535
21:00+1юз4998100 1.2 1000482